FW2001 Weather Reports


time (UTC)temp
F
wind
direction
speed
knots
gust
knots
rain 1hr
in
rain 24hr
in
rain mn
in
humidity
%
barometer
mb
20260503200050 63 279 4.3 8.7 0.00 0.00 0.00 46 1013.9
20260503195551 63 292 4.3 8.7 0.00 0.00 0.00 47 1013.9
20260503195050 63 244 4.3 8.7 0.00 0.00 0.00 46 1014.0
20260503194551 63 0 3.5 8.7 0.00 0.00 0.00 48 1013.9
20260503194051 62 314 4.3 10.4 0.00 0.00 0.00 47 1014.0
20260503193550 62 271 4.3 10.4 0.00 0.00 0.00 47 1014.1
20260503193050 62 296 3.5 10.4 0.00 0.00 0.00 49 1014.1
20260503192549 61 351 3.5 7.8 0.00 0.00 0.00 49 1014.0
20260503192050 61 350 3.5 6.1 0.00 0.00 0.00 49 1014.1
20260503191550 61 357 3.5 6.1 0.00 0.00 0.00 48 1014.0
20260503190549 61 354 3.5 10.4 0.00 0.00 0.00 48 1014.0
20260503190049 62 292 4.3 10.4 0.00 0.00 0.00 50 1014.1
20260503185550 62 321 3.5 8.7 0.00 0.00 0.00 50 1014.1
20260503185049 62 337 4.3 6.1 0.00 0.00 0.00 51 1014.1
20260503184549 61 341 2.6 6.1 0.00 0.00 0.00 50 1014.0
20260503184048 61 281 3.5 6.1 0.00 0.00 0.00 49 1014.0
20260503183548 61 321 3.5 7.8 0.00 0.00 0.00 51 1014.2
20260503182548 61 331 3.5 6.1 0.00 0.00 0.00 51 1014.1
20260503182048 60 336 1.7 7.8 0.00 0.00 0.00 51 1013.9
20260503181548 60 283 3.5 7.8 0.00 0.00 0.00 51 1013.9
20260503181048 60 264 2.6 11.3 0.00 0.00 0.00 52 1014.0
20260503180548 60 338 4.3 11.3 0.00 0.00 0.00 52 1013.9
20260503180047 60 344 3.5 7.8 0.00 0.00 0.00 53 1013.9
20260503175047 59 275 1.7 8.7 0.00 0.00 0.00 53 1013.9
20260503174547 59 285 2.6 4.3 0.00 0.00 0.00 54 1014.0
20260503174048 58 338 1.7 8.7 0.00 0.00 0.00 54 1014.0
20260503173548 58 307 3.5 8.7 0.00 0.00 0.00 54 1014.1
20260503173047 58 300 3.5 7.8 0.00 0.00 0.00 54 1014.1
20260503172547 58 354 3.5 7.8 0.00 0.00 0.00 55 1014.1
20260503172048 58 357 2.6 5.2 0.00 0.00 0.00 56 1014.1
20260503171547 58 340 1.7 6.1 0.00 0.00 0.00 56 1014.0
20260503171046 58 307 3.5 6.1 0.00 0.00 0.00 56 1014.0
20260503150542 55 298 0.0 0.9 0.00 0.00 0.00 61 1013.4
20260503131039 54 306 0.0 2.6 0.00 0.00 0.00 61 1012.1
20260503130539 54 305 0.0 4.3 0.00 0.00 0.00 61 1011.9
20260503110538 54 310 0.9 4.3 0.00 0.00 0.00 59 1012.1
20260503081535 55 300 0.9 2.6 0.00 0.00 0.00 61 1012.9
20260503081035 55 302 0.9 2.6 0.00 0.00 0.00 62 1013.0
20260503080535 55 300 0.0 0.9 0.00 0.00 0.00 62 1012.9
20260503072531 54 330 0.0 2.6 0.00 0.00 0.00 62 1012.9
20260503072031 54 330 0.9 3.5 0.00 0.00 0.00 62 1012.9
20260503071531 54 324 0.0 4.3 0.00 0.00 0.00 62 1012.9
20260503071032 54 292 1.7 6.1 0.00 0.00 0.00 62 1012.9
20260503070532 54 341 1.7 6.1 0.00 0.00 0.00 62 1013.0
20260503055031 54 303 1.7 5.2 0.00 0.00 0.00 62 1013.3
20260503054531 54 347 2.6 5.2 0.00 0.00 0.00 62 1013.4
20260503054031 54 288 1.7 6.1 0.00 0.00 0.00 62 1013.4
20260503053533 54 299 1.7 6.1 0.00 0.00 0.00 62 1013.5
20260503053032 54 299 3.5 6.1 0.00 0.00 0.00 63 1013.5
20260503052531 55 340 1.7 4.3 0.00 0.00 0.00 63 1013.4
20260503052031 54 321 1.7 4.3 0.00 0.00 0.00 63 1013.4
20260503051532 55 275 1.7 4.3 0.00 0.00 0.00 63 1013.3
20260503051030 55 355 1.7 5.2 0.00 0.00 0.00 63 1013.4
20260503050531 55 338 1.7 5.2 0.00 0.00 0.00 62 1013.3
20260503045531 55 324 2.6 8.7 0.00 0.00 0.00 62 1013.4
20260503045032 55 283 2.6 8.7 0.00 0.00 0.00 62 1013.3
20260503044031 55 313 2.6 6.1 0.00 0.00 0.00 62 1013.3
20260503043532 55 298 1.7 6.1 0.00 0.00 0.00 62 1013.4
20260503043031 55 292 2.6 5.2 0.00 0.00 0.00 61 1013.4
20260503042531 55 306 2.6 4.3 0.00 0.00 0.00 61 1013.4
20260503042032 55 305 0.9 5.2 0.00 0.00 0.00 61 1013.4
20260503041531 55 317 1.7 6.1 0.00 0.00 0.00 61 1013.4
20260503041031 55 295 3.5 6.1 0.00 0.00 0.00 61 1013.3
20260503040532 55 243 0.9 5.2 0.00 0.00 0.00 61 1013.2
20260503040032 55 323 1.7 4.3 0.00 0.00 0.00 61 1013.2
20260503035531 55 343 2.6 4.3 0.00 0.00 0.00 61 1013.1
20260503034531 55 58 1.7 6.1 0.00 0.00 0.00 61 1012.9
20260503034030 55 289 1.7 5.2 0.00 0.00 0.00 61 1012.9
20260503033531 55 330 2.6 5.2 0.00 0.00 0.00 61 1012.9
20260503033031 55 272 2.6 5.2 0.00 0.00 0.00 61 1012.7
20260503032531 55 310 2.6 6.1 0.00 0.00 0.00 61 1012.7
20260503032031 55 323 2.6 7.8 0.00 0.00 0.00 61 1012.7
20260503031530 55 347 2.6 8.7 0.00 0.00 0.00 61 1012.6
20260503031031 55 314 3.5 8.7 0.00 0.00 0.00 61 1012.4
20260503030031 55 344 2.6 6.1 0.00 0.00 0.00 61 1012.4
20260503025031 55 338 1.7 4.3 0.00 0.00 0.00 61 1012.4
20260503024531 55 254 3.5 7.8 0.00 0.00 0.00 61 1012.5
20260503024031 55 337 1.7 7.8 0.00 0.00 0.00 61 1012.5
20260503023530 55 295 2.6 7.8 0.00 0.00 0.00 61 1012.5
20260503023032 55 296 3.5 7.8 0.00 0.00 0.00 61 1012.5
20260503022532 55 347 2.6 12.2 0.00 0.00 0.00 60 1012.4
20260503022031 55 282 3.5 12.2 0.00 0.00 0.00 60 1012.3
20260503021531 55 255 3.5 8.7 0.00 0.00 0.00 60 1012.4
20260503021033 56 283 5.2 9.6 0.00 0.00 0.00 60 1012.5
20260503020531 56 306 4.3 9.6 0.00 0.00 0.00 60 1012.5
20260503020031 56 250 5.2 9.6 0.00 0.00 0.00 60 1012.5
20260503015531 56 1 3.5 9.6 0.00 0.00 0.00 59 1012.4
20260503015032 56 327 4.3 8.7 0.00 0.00 0.00 59 1012.5
20260503014531 56 264 0.9 9.6 0.00 0.00 0.00 59 1012.6
20260503014031 56 250 3.5 9.6 0.00 0.00 0.00 59 1012.6
20260503013531 56 351 3.5 10.4 0.00 0.00 0.00 59 1012.6
20260503013031 57 344 2.6 10.4 0.00 0.00 0.00 58 1012.6
20260503012531 57 333 2.6 7.8 0.00 0.00 0.00 58 1012.7
20260503012032 57 306 3.5 8.7 0.00 0.00 0.00 58 1012.7
20260503011531 57 251 4.3 8.7 0.00 0.00 0.00 58 1012.8
20260503011031 57 345 2.6 9.6 0.00 0.00 0.00 58 1012.7
20260503010531 57 241 3.5 9.6 0.00 0.00 0.00 57 1012.7
20260503010031 57 290 1.7 7.8 0.00 0.00 0.00 57 1012.8
20260503005531 58 319 3.5 6.1 0.00 0.00 0.00 57 1012.8
20260503004532 58 302 3.5 9.6 0.00 0.00 0.00 56 1012.8
20260503004031 58 283 4.3 9.6 0.00 0.00 0.00 56 1012.9
20260503003531 58 278 3.5 9.6 0.00 0.00 0.00 56 1012.8
20260503001531 58 344 4.3 13.9 0.00 0.00 0.00 55 1012.8
20260503001031 58 333 3.5 13.9 0.00 0.00 0.00 55 1012.8
20260503000532 58 345 4.3 12.2 0.00 0.00 0.00 55 1012.9
20260503000031 58 0 6.1 12.2 0.00 0.00 0.00 55 1012.8
20260502235531 59 327 6.1 10.4 0.00 0.00 0.00 55 1012.8
20260502234532 59 313 4.3 9.6 0.00 0.00 0.00 54 1012.9
20260502233533 59 347 4.3 11.3 0.00 0.00 0.00 54 1012.9
20260502233031 59 293 4.3 10.4 0.00 0.00 0.00 54 1013.0
20260502232531 60 307 6.1 10.4 0.00 0.00 0.00 54 1013.1
20260502231531 60 334 7.0 14.8 0.00 0.00 0.00 54 1013.1
20260502231031 60 283 5.2 14.8 0.00 0.00 0.00 54 1013.1
20260502230530 60 235 7.0 12.2 0.00 0.00 0.00 52 1013.1
20260502230032 61 238 7.0 13.0 0.00 0.00 0.00 51 1013.3
20260502225532 61 306 7.0 13.0 0.00 0.00 0.00 51 1013.4
20260502225031 61 317 5.2 11.3 0.00 0.00 0.00 51 1013.4
20260502224532 61 286 5.2 9.6 0.00 0.00 0.00 51 1013.4
20260502223531 62 0 5.2 11.3 0.00 0.00 0.00 52 1013.5
20260502223032 61 296 5.2 12.2 0.00 0.00 0.00 52 1013.7
20260502222033 62 283 3.5 10.4 0.00 0.00 0.00 51 1013.7
20260502221532 62 288 4.3 10.4 0.00 0.00 0.00 51 1013.7
20260502221032 62 276 4.3 10.4 0.00 0.00 0.00 50 1013.8
20260502220533 62 261 3.5 12.2 0.00 0.00 0.00 51 1013.8
20260502220032 62 274 4.3 12.2 0.00 0.00 0.00 51 1013.7
20260502215533 62 261 6.1 12.2 0.00 0.00 0.00 51 1013.8
20260502215032 62 290 3.5 12.2 0.00 0.00 0.00 51 1013.9
20260502214532 62 334 5.2 9.6 0.00 0.00 0.00 51 1013.9
20260502214034 62 334 3.5 9.6 0.00 0.00 0.00 52 1013.8
20260502213531 62 321 4.3 12.2 0.00 0.00 0.00 53 1013.9
20260502213033 62 238 5.2 12.2 0.00 0.00 0.00 52 1013.9
20260502212533 63 288 5.2 12.2 0.00 0.00 0.00 51 1014.0
20260502212034 62 296 5.2 10.4 0.00 0.00 0.00 52 1013.9
20260502211532 62 321 4.3 10.4 0.00 0.00 0.00 54 1013.8
20260502211033 62 0 3.5 10.4 0.00 0.00 0.00 54 1013.9
20260502210031 61 321 4.3 8.7 0.00 0.00 0.00 55 1014.1
20260502205532 61 199 4.3 9.6 0.00 0.00 0.00 54 1014.2
20260502205031 62 313 5.2 9.6 0.00 0.00 0.00 54 1014.1
20260502204531 62 230 5.2 9.6 0.00 0.00 0.00 54 1014.2
20260502203031 62 283 3.5 9.6 0.00 0.00 0.00 53 1014.3
20260502202031 63 278 2.6 10.4 0.00 0.00 0.00 53 1014.4
20260502201030 63 347 3.5 9.6 0.00 0.00 0.00 53 1014.3
20260502200532 63 197 3.5 9.6 0.00 0.00 0.00 54 1014.4